Tillbaka till svenska Fidonet
English   Information   Debug  
FILM   0/18
FNEWS_PUBLISH   4881
FN_SYSOP   42085
FN_SYSOP_OLD1   71952
FTP_FIDO   0/2
FTSC_PUBLIC   0/13948
FUNNY   0/4886
GENEALOGY.EUR   0/71
GET_INFO   105
GOLDED   0/408
HAM   1934/16617
HOLYSMOKE   0/6791
HOT_SITES   0/1
HTMLEDIT   0/71
HUB203   466
HUB_100   264
HUB_400   39
HUMOR   0/29
IC   1956/2851
INTERNET   0/424
INTERUSER   0/3
IP_CONNECT   719
JAMNNTPD   0/233
JAMTLAND   0/47
KATTY_KORNER   0/41
LAN   0/16
LINUX-USER   0/19
LINUXHELP   0/1155
LINUX   0/22287
LINUX_BBS   0/957
mail   18.68
mail_fore_ok   249
MENSA   0/341
MODERATOR   0/102
MONTE   0/992
MOSCOW_OKLAHOMA   0/1245
MUFFIN   0/783
MUSIC   0/321
N203_STAT   938
N203_SYSCHAT   313
NET203   321
NET204   69
NET_DEV   0/10
NORD.ADMIN   0/101
NORD.CHAT   0/2572
NORD.FIDONET   189
NORD.HARDWARE   0/28
NORD.KULTUR   0/114
NORD.PROG   0/32
NORD.SOFTWARE   0/88
NORD.TEKNIK   0/58
NORD   0/453
OCCULT_CHAT   0/93
OS2BBS   0/787
OS2DOSBBS   0/580
OS2HW   0/42
OS2INET   0/37
OS2LAN   0/134
OS2PROG   0/36
OS2REXX   0/113
OS2USER-L   207
OS2   0/4829
OSDEBATE   4000/18996
PASCAL   0/490
PERL   0/457
PHP   0/45
POINTS   0/405
POLITICS   0/29554
POL_INC   14383/14731
PSION   103
R20_ADMIN   1133
R20_AMATORRADIO   0/2
R20_BEST_OF_FIDONET   16
R20_CHAT   0/896
R20_DEPP   0/3
R20_DEV   400
R20_ECHO2   1788
R20_ECHOPRES   0/35
R20_ESTAT   0/719
R20_FIDONETPROG...
...RAM.MYPOINT
  0/2
R20_FIDONETPROGRAM   0/22
R20_FIDONET   0/248
R20_FILEFIND   0/24
R20_FILEFOUND   0/22
R20_HIFI   0/3
R20_INFO2   3681
R20_INTERNET   0/12940
R20_INTRESSE   0/60
R20_INTR_KOM   0/99
R20_KANDIDAT.CHAT   42
R20_KANDIDAT   28
R20_KOM_DEV   112
R20_KONTROLL   0/13360
R20_KORSET   0/18
R20_LOKALTRAFIK   0/24
R20_MODERATOR   0/1852
R20_NC   76
R20_NET200   245
R20_NETWORK.OTH...
...ERNETS
  0/13
R20_OPERATIVSYS...
...TEM.LINUX
  0/44
R20_PROGRAMVAROR   0/1
R20_REC2NEC   534
R20_SFOSM   0/341
R20_SF   0/108
R20_SPRAK.ENGLISH   0/1
R20_SQUISH   107
R20_TEST   2
R20_WORST_OF_FIDONET   20
RAR   0/9
RA_MULTI   106
RA_UTIL   0/162
REGCON.EUR   0/2067
REGCON   0/13
SCIENCE   0/1206
SF   0/239
SHAREWARE_SUPPORT   0/5146
SHAREWRE   0/14
SIMPSONS   0/169
STATS_OLD1   0/2539.065
STATS_OLD2   0/2530
STATS_OLD3   0/2395.095
STATS_OLD4   0/1692.25
SURVIVOR   0/495
SYSOPS_CORNER   0/3
SYSOP   0/84
TAGLINES   0/112
TEAMOS2   0/4530
TECH   0/2617
TEST.444   0/105
TRAPDOOR   0/19
TREK   0/755
TUB   0/290
UFO   0/40
UNIX   0/1316
USA_EURLINK   0/102
USR_MODEMS   0/1
VATICAN   0/2740
VIETNAM_VETS   0/14
VIRUS   0/378
VIRUS_INFO   0/201
VISUAL_BASIC   0/473
WHITEHOUSE   0/5187
WIN2000   0/101
WIN32   0/30
WIN95   0/4291
WIN95_OLD1   0/70272
WINDOWS   0/1517
WWB_SYSOP   0/419
WWB_TECH   0/810
ZCC-PUBLIC   0/1
ZEC   4

 
4DOS   0/134
ABORTION   0/7
ALASKA_CHAT   0/506
ALLFIX_FILE   0/1313
ALLFIX_FILE_OLD1   0/7997
ALT_DOS   0/152
AMATEUR_RADIO   0/1039
AMIGASALE   0/14
AMIGA   0/331
AMIGA_INT   0/1
AMIGA_PROG   0/20
AMIGA_SYSOP   0/26
ANIME   0/15
ARGUS   0/924
ASCII_ART   0/340
ASIAN_LINK   0/651
ASTRONOMY   0/417
AUDIO   0/92
AUTOMOBILE_RACING   0/105
BABYLON5   0/17862
BAG   135
BATPOWER   0/361
BBBS.ENGLISH   0/382
BBSLAW   0/109
BBS_ADS   0/5290
BBS_INTERNET   0/507
BIBLE   0/3563
BINKD   0/1119
BINKLEY   0/215
BLUEWAVE   0/2173
CABLE_MODEMS   0/25
CBM   0/46
CDRECORD   0/66
CDROM   0/20
CLASSIC_COMPUTER   0/378
COMICS   0/15
CONSPRCY   0/899
COOKING   41016
COOKING_OLD1   0/24719
COOKING_OLD2   0/40862
COOKING_OLD3   0/37489
COOKING_OLD4   0/35496
COOKING_OLD5   9370
C_ECHO   0/189
C_PLUSPLUS   0/31
DIRTY_DOZEN   0/201
DOORGAMES   0/2253
DOS_INTERNET   0/196
duplikat   6102
ECHOLIST   0/18295
EC_SUPPORT   0/318
ELECTRONICS   0/359
ELEKTRONIK.GER   1534
ENET.LINGUISTIC   0/13
ENET.POLITICS   0/4
ENET.SOFT   0/11701
ENET.SYSOP   34252
ENET.TALKS   0/32
ENGLISH_TUTOR   0/2000
EVOLUTION   0/1335
FDECHO   0/217
FDN_ANNOUNCE   0/7068
FIDONEWS   24977
FIDONEWS_OLD1   0/49742
FIDONEWS_OLD2   0/35949
FIDONEWS_OLD3   99/30874
FIDONEWS_OLD4   0/37224
FIDO_SYSOP   12920
FIDO_UTIL   0/180
FILEFIND   0/209
FILEGATE   0/212
Möte HAM, 16617 texter
 lista första sista föregående nästa
Text 479, 771 rader
Skriven 2005-07-08 01:31:25 av Amsat List (1:323/120.0)
Ärende: 
========
SB KEPS @ AMSAT  $ORB05188.O
Orbital Elements  05188.OSCAR

HR AMSAT ORBITAL ELEMENTS FOR OSCAR SATELLITES
FROM WA5QGD FORT WORTH,TX July 7, 2005
Send SUBSCRIBE KEPS/UNSUBSCRIBE KEPS to majordomo@amsat.org only
BID: ORB05188.O
TO ALL RADIO AMATEURS BT

Satellite: AO-40
Catalog number: 26609
Epoch time:      05176.88687888
Element set:    0568
Inclination:      007.7649 deg
RA of node:       296.2986 deg
Eccentricity:    0.7930164
Arg of perigee:   053.2001 deg
Mean anomaly:     355.5527 deg
Mean motion:   01.25583904 rev/day
Decay rate:      -1.09e-06 rev/day^2
Epoch rev:           02137
Checksum:              345

Satellite: SO-33
Catalog number: 25509
Epoch time:      05187.54907486
Element set:     410
Inclination:      031.4343 deg
RA of node:       283.1503 deg
Eccentricity:    0.0356013
Arg of perigee:   335.2420 deg
Mean anomaly:     023.1456 deg
Mean motion:   14.28019214 rev/day
Decay rate:       1.11e-06 rev/day^2
Epoch rev:           34959
Checksum:              269

Satellite: AO-10
Catalog number: 14129
Epoch time:      05187.56076064
Element set:     194
Inclination:      027.3843 deg
RA of node:       024.2187 deg
Eccentricity:    0.6028869
Arg of perigee:   202.9457 deg
Mean anomaly:     111.5367 deg
Mean motion:   02.05868195 rev/day
Decay rate:      -3.43e-06 rev/day^2
Epoch rev:           16593
Checksum:              319

Satellite: FO-20
Catalog number: 20480
Epoch time:      05187.56450613
Element set:     948
Inclination:      099.0221 deg
RA of node:       358.1004 deg
Eccentricity:    0.0540296
Arg of perigee:   195.5943 deg
Mean anomaly:     162.7935 deg
Mean motion:   12.83347644 rev/day
Decay rate:        5.0e-08 rev/day^2
Epoch rev:           72198
Checksum:              313

Satellite: RS-12/13
Catalog number: 21089
Epoch time:      05187.67904541
Element set:    0959
Inclination:      082.9211 deg
RA of node:       256.4175 deg
Eccentricity:    0.0030366
Arg of perigee:   027.9505 deg
Mean anomaly:     332.3280 deg
Mean motion:   13.74451376 rev/day
Decay rate:       -1.0e-07 rev/day^2
Epoch rev:           72317
Checksum:              301

Satellite: AO-07
Catalog number: 07530
Epoch time:      05187.70452697
Element set:    0454
Inclination:      101.6230 deg
RA of node:       233.4949 deg
Eccentricity:    0.0012017
Arg of perigee:   196.2773 deg
Mean anomaly:     163.7915 deg
Mean motion:   12.53570680 rev/day
Decay rate:       -2.8e-07 rev/day^2
Epoch rev:           40209
Checksum:              295

Satellite: VO-52
Catalog number: 28650
Epoch time:      05187.74086129
Element set:    0069
Inclination:      097.9104 deg
RA of node:       261.2031 deg
Eccentricity:    0.0028396
Arg of perigee:   046.2772 deg
Mean anomaly:     314.0764 deg
Mean motion:   14.80871325 rev/day
Decay rate:       3.39e-06 rev/day^2
Epoch rev:           00925
Checksum:              307

Satellite: UO-11
Catalog number: 14781
Epoch time:      05187.82530526
Element set:    0824
Inclination:      098.2006 deg
RA of node:       185.7904 deg
Eccentricity:    0.0007987
Arg of perigee:   299.4477 deg
Mean anomaly:     060.5934 deg
Mean motion:   14.79264938 rev/day
Decay rate:       2.30e-06 rev/day^2
Epoch rev:           14470
Checksum:              332

Satellite: RS-15
Catalog number: 23439
Epoch time:      05187.91660170
Element set:    0895
Inclination:      064.8191 deg
RA of node:       075.6442 deg
Eccentricity:    0.0164856
Arg of perigee:   312.9381 deg
Mean anomaly:     045.7811 deg
Mean motion:   11.27551654 rev/day
Decay rate:       -3.9e-07 rev/day^2
Epoch rev:           43361
Checksum:              318

Satellite: FO-29
Catalog number: 24278
Epoch time:      05188.02936854
Element set:     992
Inclination:      098.5425 deg
RA of node:       234.9164 deg
Eccentricity:    0.0351281
Arg of perigee:   124.8050 deg
Mean anomaly:     238.6691 deg
Mean motion:   13.52913608 rev/day
Decay rate:       -3.8e-07 rev/day^2
Epoch rev:           43887
Checksum:              341

Satellite: RS-10/11
Catalog number: 18129
Epoch time:      05188.21332176
Element set:     731
Inclination:      082.9252 deg
RA of node:       223.3172 deg
Eccentricity:    0.0011382
Arg of perigee:   340.1960 deg
Mean anomaly:     019.8749 deg
Mean motion:   13.72761108 rev/day
Decay rate:        4.2e-07 rev/day^2
Epoch rev:           90382
Checksum:              281

/EX
SB KEPS @ AMSAT  $ORB05188.D
Orbital Elements  05188.MICROS

HR AMSAT ORBITAL ELEMENTS FOR THE MICROSATS
FROM WA5QGD FORT WORTH,TX July 7, 2005
Send SUBSCRIBE KEPS/UNSUBSCRIBE KEPS to majordomo@amsat.org only
BID: ORB05188.D
TO ALL RADIO AMATEURS BT

Satellite: AO-51
Catalog number: 28375
Epoch time:      05184.24338405
Element set:    0291
Inclination:      098.2111 deg
RA of node:       246.1657 deg
Eccentricity:    0.0083795
Arg of perigee:   181.9571 deg
Mean anomaly:     178.1302 deg
Mean motion:   14.40464810 rev/day
Decay rate:       -4.4e-07 rev/day^2
Epoch rev:           05293
Checksum:              300

Satellite: KO-25
Catalog number: 22828
Epoch time:      05187.54092441
Element set:    0090
Inclination:      098.2428 deg
RA of node:       183.4922 deg
Eccentricity:    0.0009235
Arg of perigee:   176.2515 deg
Mean anomaly:     183.8739 deg
Mean motion:   14.29688371 rev/day
Decay rate:        1.6e-07 rev/day^2
Epoch rev:           58228
Checksum:              327

Satellite: WO-18
Catalog number: 20441
Epoch time:      05187.63066850
Element set:    0702
Inclination:      098.2139 deg
RA of node:       216.1302 deg
Eccentricity:    0.0012101
Arg of perigee:   139.9213 deg
Mean anomaly:     220.2872 deg
Mean motion:   14.31754462 rev/day
Decay rate:        8.0e-08 rev/day^2
Epoch rev:           80693
Checksum:              270

